YAOGAN-47

导读

YAOGAN-47(遥感四十七号)是中国研制的遥感卫星,于北京时间2025年12月9日11时41分,在酒泉卫星发射中心由长征四号乙运载火箭成功发射,卫星顺利进入预定轨道,发射任务取得圆满成功,这也是长征系列运载火箭的第614次飞行。该卫星主要服务于国土普查、城市规划、路网设计、农作物估产、环境治理和综合防灾减灾等领域,将为国家经济社会发展提供遥感数据支撑。

基本信息
目录编号:
66988
目录名称:
YAOGAN-47
国际标识:
2025-289A
轨道中心:
EARTH
卫星名称:
YAOGAN-47
卫星全名:
YAOGAN-47
卫星状态:
在轨 (已飞行188 天)
发射日期:
2025-12-09 UTC
国别 :
中国 (CN)
星等 :
--
轨道信息
数据来源 国际轨道数据 AOE轨道数据
星历时间 2026-06-15T07:25:35+0800
8小时前
查看轨道信息
2026-06-15T06:00:00+0800
9小时前
查看轨道信息
半长轴 6874.169km 6874.179km
偏心率 0.0000669 0.0000665
轨道倾角 97.503° 97.503°
近地点辐角 127.959° 124.668°
升交点赤经 236.292° 236.234°
平近点角 232.171° 269.743°
近地点 495.572km 495.584km
远地点 496.492km 496.5km
周期 94.534分钟 94.535分钟
每日圈数 15.232546 15.232514
详细信息
使用方式:
暂无
2D轨道图
3D轨道图
轨道高度分析图
轨道倾角分析图
轨道综合分析图
查看轨道综合分析图